Weather History for Stillwater, OK

Change the Weather History Date:

Tuesday, August 26, 2014

  Actual Average Record
Temperature  
Mean Temperature 86 °F -  
Max Temperature 100 °F 92 °F 109 °F (1999)
Min Temperature 71 °F 67 °F 52 °F (2010)
Cooling Degree Days 20    
Growing Degree Days 36 (Base 50)    
Moisture  
Dew Point 66 °F    
Average Humidity 51    
Maximum Humidity 84    
Minimum Humidity 30    
Precipitation  
Precipitation 0.00 in - - ()
Sea Level Pressure  
Sea Level Pressure 29.99 in    
Wind  
Wind Speed 7 mph (SE)    
Max Wind Speed 13 mph    
Max Gust Speed 17 mph    
Visibility 10 miles    
Events      
Averages and records for this station are not official NWS values.
T = Trace of Precipitation, MM = Missing Value Source: NWS Daily Summary

Daily Weather History Graph

Daily Weather History Graph

Search for Another Location

Airport:

Trip Planner

Search our weather history database for the weather conditions in past years. The results will help you decide how hot, cold, wet, or windy it might be!

Date:

Astronomy

Aug. 26, 2014 Rise Set
Actual Time 6:55 AM CDT 8:04 PM CDT
Civil Twilight 6:28 AM CDT 8:30 PM CDT
Nautical Twilight 5:57 AM CDT 9:02 PM CDT
Astronomical Twilight 5:24 AM CDT 9:35 PM CDT
Moon 7:53 AM CDT (8/26) 8:30 PM CDT (8/26)
Length of Visible Light 14h 02m
Length of Day
13h 09m
New Moon, 1% of the Moon is Illuminated
Aug 26
New Moon
Sep 2
First Quarter
Sep 8
Full
Sep 15
Last Quarter
Sep 24
New

Hourly Weather History & Observations

Time (CDT) Temp. Heat Index Dew Point Humidity Pressure Visibility Wind Dir Wind Speed Gust Speed Precip Events Conditions
12:53 AM 82.0 °F 84.1 °F 66.0 °F 58% 29.99 in 10.0 mi SE 6.9 mph - N/A   Clear
1:53 AM 80.1 °F 82.1 °F 66.0 °F 62% 29.95 in 10.0 mi SSE 8.1 mph - N/A   Clear
2:53 AM 77.0 °F - 64.9 °F 66% 29.96 in 10.0 mi South 3.5 mph - N/A   Clear
4:53 AM 71.1 °F - 66.0 °F 84% 29.97 in 10.0 mi Calm Calm - N/A   Clear
5:53 AM 71.1 °F - 66.0 °F 84% 30.01 in 10.0 mi North 5.8 mph - N/A   Clear
7:53 AM 75.9 °F - 68.0 °F 76% 30.04 in 10.0 mi East 6.9 mph - N/A   Clear
8:53 AM 81.0 °F 83.8 °F 68.0 °F 65% 30.04 in 10.0 mi ESE 5.8 mph - N/A   Clear
10:53 AM 91.0 °F 96.6 °F 70.0 °F 50% 30.05 in 10.0 mi South 12.7 mph - N/A   Clear
11:53 AM 93.0 °F 97.9 °F 69.1 °F 45% 30.04 in 10.0 mi South 8.1 mph - N/A   Clear
12:53 PM 96.1 °F 99.9 °F 66.9 °F 38% 30.03 in 10.0 mi South 8.1 mph - N/A   Clear
1:53 PM 97.0 °F 101.0 °F 66.9 °F 37% 30.01 in 10.0 mi Variable 4.6 mph - N/A   Partly Cloudy
2:53 PM 99.0 °F 100.5 °F 62.1 °F 30% 29.99 in 10.0 mi Variable 5.8 mph - N/A   Clear
3:53 PM 100.0 °F 103.0 °F 64.0 °F 31% 29.97 in 10.0 mi SE 9.2 mph 17.3 mph N/A   Clear
4:53 PM 99.0 °F 100.5 °F 63.0 °F 30% 29.94 in 10.0 mi SSE 6.9 mph - N/A   Clear
5:53 PM 98.1 °F 99.6 °F 63.0 °F 31% 29.93 in 10.0 mi SE 11.5 mph - N/A   Clear
6:53 PM 96.1 °F 97.3 °F 63.0 °F 33% 29.94 in 10.0 mi SSE 10.4 mph - N/A   Clear
7:53 PM 91.0 °F 93.0 °F 64.9 °F 42% 29.95 in 10.0 mi SSE 10.4 mph - N/A   Clear
8:53 PM 89.1 °F 91.0 °F 64.9 °F 45% 29.97 in 10.0 mi SSE 9.2 mph - N/A   Clear
9:53 PM 86.0 °F 87.6 °F 64.9 °F 49% 30.00 in 10.0 mi SE 8.1 mph - N/A   Clear
10:53 PM 82.9 °F 84.6 °F 64.9 °F 54% 30.01 in 10.0 mi SE 8.1 mph - N/A   Clear
11:53 PM 81.0 °F 82.7 °F 64.9 °F 58% 30.01 in 10.0 mi SE 8.1 mph - N/A   Clear